When you browse on this site, cookies collect data to enhance your experience and personalize the content and advertising you see.
Visit our Privacy Policy to learn more. By continuing to use the site, you agree to this use of cookies and data.
  • En España
  • Lista de países
  • Para 7 días
  • Temperatura del agua
  • El tiempo en el mapa
  • Informadores
  • user-avatar
    Iniciar sesión

    Tiempo cada hora Calgari

    Hoy, 15 Noviembre, Viernes

    Tiempo Temperatura Precipitaciones Viento Presión Humedad
    00:00 +15°C° 0 mm 7 mps 750 mmHg 86%
    01:00 +15°C° 0 mm 8 mps 750 mmHg 86%
    02:00 +15°C° 0 mm 7 mps 750 mmHg 86%
    03:00 +15°C° 0 mm 6 mps 750 mmHg 86%
    04:00 +15°C° 0 mm 6 mps 750 mmHg 86%
    05:00 +14°C° 0 mm 5 mps 750 mmHg 87%
    06:00 +14°C° 0 mm 4 mps 750 mmHg 88%
    07:00 +14°C° 0 mm 4 mps 750 mmHg 88%
    08:00 +14°C° 0 mm 4 mps 750 mmHg 83%
    09:00 +15°C° 0 mm 4 mps 751 mmHg 78%
    10:00 +15°C° 0 mm 5 mps 751 mmHg 73%
    11:00 +15°C° 0 mm 6 mps 751 mmHg 72%
    12:00 +15°C° 0 mm 6 mps 751 mmHg 71%
    13:00 +15°C° 0 mm 7 mps 751 mmHg 70%
    14:00 +15°C° 0.1 mm 6 mps 751 mmHg 70%
    15:00 +15°C° 0.1 mm 6 mps 751 mmHg 70%
    16:00 +14°C° 0.1 mm 5 mps 752 mmHg 69%
    17:00 +14°C° 0 mm 4 mps 752 mmHg 73%
    18:00 +13°C° 0 mm 4 mps 752 mmHg 76%
    19:00 +12°C° 0 mm 3 mps 753 mmHg 80%
    20:00 +12°C° 0 mm 3 mps 753 mmHg 79%
    21:00 +12°C° 0 mm 3 mps 754 mmHg 79%
    22:00 +12°C° 0 mm 3 mps 754 mmHg 78%
    23:00 +11°C° 0 mm 3 mps 754 mmHg 79%

    Mañana, 16 Noviembre, Sábado

    Tiempo Temperatura Precipitaciones Viento Presión Humedad
    00:00 +11°C° 0 mm 3 mps 754 mmHg 79%
    01:00 +12°C° 0 mm 2 mps 755 mmHg 80%
    02:00 +12°C° 0 mm 2 mps 755 mmHg 80%
    03:00 +10°C° 0 mm 2 mps 755 mmHg 81%
    04:00 +10°C° 0 mm 2 mps 755 mmHg 81%
    05:00 +12°C° 0 mm 2 mps 755 mmHg 80%
    06:00 +12°C° 0 mm 2 mps 755 mmHg 79%
    07:00 +12°C° 0 mm 2 mps 754 mmHg 77%
    08:00 +12°C° 1.5 mm 3 mps 754 mmHg 79%
    09:00 +12°C° 1.5 mm 4 mps 754 mmHg 81%
    10:00 +13°C° 1.5 mm 4 mps 754 mmHg 83%
    11:00 +12°C° 2.7 mm 5 mps 753 mmHg 86%
    12:00 +11°C° 2.7 mm 6 mps 753 mmHg 89%
    13:00 +10°C° 2.7 mm 6 mps 752 mmHg 92%
    14:00 +10°C° 1.5 mm 8 mps 751 mmHg 92%
    15:00 +10°C° 1.5 mm 9 mps 750 mmHg 91%
    16:00 +9°C° 1.5 mm 10 mps 749 mmHg 91%
    17:00 +10°C° 2 mm 9 mps 748 mmHg 92%
    18:00 +11°C° 2 mm 7 mps 748 mmHg 93%
    19:00 +12°C° 2 mm 5 mps 747 mmHg 94%
    20:00 +12°C° 1.1 mm 4 mps 747 mmHg 94%
    21:00 +11°C° 1.1 mm 4 mps 746 mmHg 95%
    22:00 +11°C° 1.1 mm 3 mps 746 mmHg 95%
    23:00 +11°C° 0.2 mm 4 mps 746 mmHg 94%

    Pasado mañana, 17 Noviembre, Domingo

    Tiempo Temperatura Precipitaciones Viento Presión Humedad
    00:00 +10°C° 0.2 mm 5 mps 746 mmHg 93%
    01:00 +11°C° 0.2 mm 6 mps 746 mmHg 92%
    02:00 +10°C° 0.4 mm 9 mps 746 mmHg 90%
    03:00 +9°C° 0.4 mm 11 mps 746 mmHg 89%
    04:00 +8°C° 0.4 mm 13 mps 747 mmHg 87%
    05:00 +8°C° 0.5 mm 12 mps 748 mmHg 88%
    06:00 +9°C° 0.5 mm 11 mps 748 mmHg 89%
    07:00 +9°C° 0.5 mm 10 mps 749 mmHg 90%
    08:00 +10°C° 0.2 mm 9 mps 750 mmHg 85%
    09:00 +11°C° 0.2 mm 9 mps 751 mmHg 80%
    10:00 +12°C° 0.2 mm 8 mps 753 mmHg 75%
    11:00 +13°C° 0.1 mm 9 mps 753 mmHg 72%
    12:00 +13°C° 0.1 mm 9 mps 753 mmHg 68%
    13:00 +14°C° 0.1 mm 10 mps 754 mmHg 65%
    14:00 +13°C° 0.1 mm 9 mps 754 mmHg 66%
    15:00 +13°C° 0.1 mm 8 mps 754 mmHg 67%
    16:00 +13°C° 0.1 mm 8 mps 754 mmHg 69%
    17:00 +12°C° 0.1 mm 7 mps 755 mmHg 73%
    18:00 +11°C° 0.1 mm 7 mps 755 mmHg 77%
    19:00 +10°C° 0.1 mm 6 mps 755 mmHg 82%
    20:00 +10°C° 0.2 mm 6 mps 756 mmHg 82%
    21:00 +10°C° 0.2 mm 5 mps 756 mmHg 82%
    22:00 +10°C° 0.2 mm 5 mps 756 mmHg 83%
    23:00 +9°C° 0.1 mm 5 mps 756 mmHg 84%

    18 Noviembre, Lunes

    Tiempo Temperatura Precipitaciones Viento Presión Humedad
    00:00 +9°C° 0.1 mm 6 mps 756 mmHg 84%
    01:00 +9°C° 0.1 mm 6 mps 756 mmHg 85%
    02:00 +9°C° 0 mm 5 mps 756 mmHg 85%
    03:00 +8°C° 0 mm 5 mps 756 mmHg 86%
    04:00 +8°C° 0 mm 4 mps 756 mmHg 87%
    05:00 +8°C° 0 mm 4 mps 756 mmHg 86%
    06:00 +10°C° 0 mm 3 mps 756 mmHg 85%
    07:00 +10°C° 0 mm 3 mps 756 mmHg 84%
    08:00 +11°C° 0 mm 3 mps 757 mmHg 78%
    09:00 +13°C° 0 mm 3 mps 757 mmHg 72%
    10:00 +14°C° 0 mm 3 mps 757 mmHg 67%
    11:00 +15°C° 0.1 mm 5 mps 756 mmHg 67%
    12:00 +15°C° 0.1 mm 6 mps 756 mmHg 68%
    13:00 +15°C° 0.1 mm 7 mps 755 mmHg 68%
    14:00 +15°C° 0 mm 7 mps 755 mmHg 67%
    15:00 +15°C° 0 mm 7 mps 754 mmHg 66%
    16:00 +14°C° 0 mm 7 mps 754 mmHg 65%
    17:00 +14°C° 0.4 mm 7 mps 754 mmHg 73%
    18:00 +12°C° 0.4 mm 7 mps 754 mmHg 80%
    19:00 +12°C° 0.4 mm 7 mps 754 mmHg 87%
    20:00 +13°C° 0.5 mm 6 mps 754 mmHg 89%
    21:00 +13°C° 0.5 mm 6 mps 754 mmHg 90%
    22:00 +13°C° 0.5 mm 5 mps 754 mmHg 91%
    23:00 +13°C° 0.9 mm 5 mps 754 mmHg 90%

    19 Noviembre, Martes

    Tiempo Temperatura Precipitaciones Viento Presión Humedad
    00:00 +13°C° 0.9 mm 5 mps 754 mmHg 88%
    01:00 +13°C° 0.9 mm 6 mps 754 mmHg 86%
    02:00 +12°C° 0.2 mm 5 mps 754 mmHg 87%
    03:00 +12°C° 0.2 mm 5 mps 754 mmHg 88%
    04:00 +12°C° 0.2 mm 4 mps 754 mmHg 89%
    05:00 +10°C° 0.1 mm 5 mps 755 mmHg 90%
    06:00 +10°C° 0.1 mm 6 mps 755 mmHg 91%
    07:00 +10°C° 0.1 mm 7 mps 755 mmHg 92%
    08:00 +11°C° 0 mm 7 mps 756 mmHg 85%
    09:00 +12°C° 0 mm 7 mps 757 mmHg 77%
    10:00 +12°C° 0 mm 7 mps 757 mmHg 70%
    11:00 +14°C° 0 mm 7 mps 758 mmHg 66%
    12:00 +15°C° 0 mm 7 mps 758 mmHg 63%
    13:00 +15°C° 0 mm 7 mps 758 mmHg 60%
    14:00 +15°C° 0 mm 7 mps 758 mmHg 60%
    15:00 +14°C° 0 mm 7 mps 759 mmHg 61%
    16:00 +12°C° 0 mm 7 mps 759 mmHg 62%
    17:00 +11°C° 0 mm 6 mps 759 mmHg 67%
    18:00 +10°C° 0 mm 5 mps 760 mmHg 72%
    19:00 +9°C° 0 mm 5 mps 760 mmHg 76%
    20:00 +10°C° 0 mm 4 mps 760 mmHg 78%
    21:00 +8°C° 0 mm 4 mps 761 mmHg 79%
    22:00 +9°C° 0 mm 3 mps 761 mmHg 80%
    23:00 +9°C° 0 mm 3 mps 761 mmHg 80%

    20 Noviembre, Miércoles

    Tiempo Temperatura Precipitaciones Viento Presión Humedad
    00:00 +9°C° 0 mm 2 mps 761 mmHg 80%
    01:00 +9°C° 0 mm 2 mps 761 mmHg 80%
    02:00 +9°C° 0 mm 2 mps 761 mmHg 78%
    03:00 +10°C° 0 mm 1 mps 760 mmHg 77%
    04:00 +11°C° 0 mm 1 mps 760 mmHg 75%
    05:00 +11°C° 0 mm 1 mps 760 mmHg 76%
    06:00 +11°C° 0 mm 1 mps 760 mmHg 76%
    07:00 +11°C° 0 mm 1 mps 760 mmHg 77%
    08:00 +12°C° 0 mm 2 mps 761 mmHg 73%
    09:00 +13°C° 0 mm 3 mps 761 mmHg 70%
    10:00 +15°C° 0 mm 4 mps 761 mmHg 66%
    11:00 +15°C° 0 mm 5 mps 761 mmHg 67%
    12:00 +16°C° 0 mm 5 mps 760 mmHg 67%
    13:00 +16°C° 0 mm 6 mps 760 mmHg 68%
    14:00 +16°C° 0 mm 6 mps 760 mmHg 70%
    15:00 +15°C° 0 mm 6 mps 759 mmHg 72%
    16:00 +15°C° 0 mm 6 mps 759 mmHg 74%
    17:00 +15°C° 0 mm 6 mps 759 mmHg 76%
    18:00 +14°C° 0 mm 6 mps 759 mmHg 79%
    19:00 +13°C° 0 mm 6 mps 759 mmHg 81%
    20:00 +14°C° 0 mm 6 mps 759 mmHg 81%
    21:00 +14°C° 0 mm 6 mps 759 mmHg 81%
    22:00 +14°C° 0 mm 7 mps 759 mmHg 80%
    23:00 +14°C° 0 mm 6 mps 759 mmHg 80%
    Mostrar más